Location: Unspecified
(51.0950°N, 12.9690°E)
Time: 14:15:49
(UTC+00:00)

Cosmos 1726 Rocket - Pass Details

Date: 28 October 2021
Orbit: 601 x 630 km, 82.5° (Epoch: 26 November)

Event Time Altitude Azimuth Distance (km) Brightness Sun altitude
Rises 17:17:07 0° 159° (SSE) 2,911 6.8 -14.3°
Reaches altitude 10° 17:19:33 10° 149° (SSE) 2,008 5.9 -14.7°
Maximum altitude 17:23:23 29° 89° (E) 1,162 4.4 -15.3°
Drops below altitude 10° 17:27:14 10° 30° (NNE) 2,016 5.9 -15.9°
Sets 17:29:41 0° 19° (NNE) 2,924 6.8 -16.3°
